Time,TemperatureF,DewpointF,PressureIn,WindDirection,WindDirectionDegrees,WindSpeedMPH,WindSpeedGustMPH,Humidity,HourlyPrecipIn,Conditions,Clouds,dailyrainin,SoftwareType,DateUTC
2013-02-28 00:00:00,42.3,35.6,29.65,West,263,0.0,1.0,77,0.00,,,0.00,WUHU216DAVISVP2,2013-02-28 05:00:00,
2013-02-28 00:05:00,42.2,35.6,29.65,West,264,0.0,1.0,77,0.00,,,0.00,WUHU216DAVISVP2,2013-02-28 05:05:00,
2013-02-28 00:10:00,42.2,35.9,29.65,West,264,0.0,1.0,78,0.00,,,0.00,WUHU216DAVISVP2,2013-02-28 05:10:00,
2013-02-28 00:15:00,42.2,35.9,29.64,West,264,0.0,0.0,78,0.00,,,0.00,WUHU216DAVISVP2,2013-02-28 05:15:00,
2013-02-28 00:20:00,42.2,36.5,29.64,West,264,0.0,0.0,80,0.00,,,0.00,WUHU216DAVISVP2,2013-02-28 05:20:00,
2013-02-28 00:25:00,42.3,36.9,29.64,West,264,0.0,0.0,81,0.00,,,0.00,WUHU216DAVISVP2,2013-02-28 05:25:00,
2013-02-28 00:30:00,42.2,36.8,29.64,West,264,0.0,0.0,81,0.00,,,0.00,WUHU216DAVISVP2,2013-02-28 05:30:00,
2013-02-28 00:35:00,42.2,36.8,29.64,West,263,0.0,0.0,81,0.00,,,0.00,WUHU216DAVISVP2,2013-02-28 05:35:00,
2013-02-28 00:40:00,42.1,36.4,29.64,West,264,0.0,0.0,80,0.00,,,0.00,WUHU216DAVISVP2,2013-02-28 05:40:00,
2013-02-28 00:45:00,42.0,36.3,29.64,West,264,0.0,0.0,80,0.00,,,0.00,WUHU216DAVISVP2,2013-02-28 05:45:00,
2013-02-28 00:50:00,42.0,36.6,29.64,West,263,0.0,0.0,81,0.00,,,0.00,WUHU216DAVISVP2,2013-02-28 05:50:00,
2013-02-28 00:55:00,42.0,36.3,29.64,West,264,0.0,1.0,80,0.00,,,0.00,WUHU216DAVISVP2,2013-02-28 05:55:00,
2013-02-28 01:00:00,42.2,36.5,29.64,West,264,0.0,1.0,80,0.00,,,0.00,WUHU216DAVISVP2,2013-02-28 06:00:00,
2013-02-28 01:05:00,42.2,36.8,29.64,West,263,0.0,1.0,81,0.00,,,0.00,WUHU216DAVISVP2,2013-02-28 06:05:00,
2013-02-28 01:10:00,42.2,36.8,29.64,West,263,0.0,1.0,81,0.00,,,0.00,WUHU216DAVISVP2,2013-02-28 06:10:00,
2013-02-28 01:15:00,42.1,36.4,29.64,West,264,0.0,1.0,80,0.00,,,0.00,WUHU216DAVISVP2,2013-02-28 06:15:00,
2013-02-28 01:20:00,42.0,36.0,29.64,West,264,0.0,1.0,79,0.00,,,0.00,WUHU216DAVISVP2,2013-02-28 06:20:00,
2013-02-28 01:25:00,42.0,36.3,29.64,West,264,0.0,1.0,80,0.00,,,0.00,WUHU216DAVISVP2,2013-02-28 06:25:00,
2013-02-28 01:30:00,41.9,36.2,29.65,West,264,0.0,1.0,80,0.00,,,0.00,WUHU216DAVISVP2,2013-02-28 06:30:00,
2013-02-28 01:35:00,41.9,36.5,29.65,West,264,0.0,0.0,81,0.00,,,0.00,WUHU216DAVISVP2,2013-02-28 06:35:00,
2013-02-28 01:40:00,41.8,36.1,29.64,West,263,0.0,1.0,80,0.00,,,0.00,WUHU216DAVISVP2,2013-02-28 06:40:00,
2013-02-28 01:45:00,41.8,36.1,29.64,West,264,0.0,1.0,80,0.00,,,0.00,WUHU216DAVISVP2,2013-02-28 06:45:00,
2013-02-28 01:50:00,41.7,36.0,29.64,West,264,0.0,1.0,80,0.00,,,0.00,WUHU216DAVISVP2,2013-02-28 06:50:00,
2013-02-28 01:55:00,41.8,36.1,29.64,West,264,0.0,1.0,80,0.00,,,0.00,WUHU216DAVISVP2,2013-02-28 06:55:00,
2013-02-28 02:00:00,41.9,36.5,29.64,West,264,0.0,0.0,81,0.00,,,0.00,WUHU216DAVISVP2,2013-02-28 07:00:00,
2013-02-28 02:05:00,42.0,36.6,29.64,West,264,0.0,0.0,81,0.00,,,0.00,WUHU216DAVISVP2,2013-02-28 07:05:00,
2013-02-28 02:10:00,42.0,36.9,29.65,West,264,0.0,2.0,82,0.00,,,0.00,WUHU216DAVISVP2,2013-02-28 07:10:00,
2013-02-28 02:15:00,41.9,37.1,29.65,West,264,1.0,2.0,83,0.00,,,0.00,WUHU216DAVISVP2,2013-02-28 07:15:00,
2013-02-28 02:20:00,41.9,36.8,29.64,West,264,0.0,2.0,82,0.00,,,0.00,WUHU216DAVISVP2,2013-02-28 07:20:00,
2013-02-28 02:25:00,42.0,37.2,29.64,West,264,0.0,3.0,83,0.00,,,0.00,WUHU216DAVISVP2,2013-02-28 07:25:00,
2013-02-28 02:30:00,42.0,37.2,29.64,West,264,0.0,3.0,83,0.00,,,0.00,WUHU216DAVISVP2,2013-02-28 07:30:00,
2013-02-28 02:35:00,42.1,37.0,29.64,West,264,0.0,3.0,82,0.00,,,0.00,WUHU216DAVISVP2,2013-02-28 07:35:00,
2013-02-28 02:40:00,42.2,37.1,29.64,West,264,0.0,3.0,82,0.00,,,0.00,WUHU216DAVISVP2,2013-02-28 07:40:00,
2013-02-28 02:45:00,42.2,37.1,29.64,West,264,0.0,3.0,82,0.00,,,0.00,WUHU216DAVISVP2,2013-02-28 07:45:00,
2013-02-28 02:50:00,42.2,37.4,29.64,West,263,1.0,3.0,83,0.00,,,0.00,WUHU216DAVISVP2,2013-02-28 07:50:00,
2013-02-28 02:55:00,42.3,37.2,29.64,WNW,286,3.0,7.0,82,0.00,,,0.00,WUHU216DAVISVP2,2013-02-28 07:55:00,
2013-02-28 03:00:00,42.6,37.2,29.64,West,269,1.0,7.0,81,0.00,,,0.00,WUHU216DAVISVP2,2013-02-28 08:00:00,
2013-02-28 03:05:00,42.9,37.5,29.65,WNW,292,4.0,11.0,81,0.00,,,0.00,WUHU216DAVISVP2,2013-02-28 08:05:00,
2013-02-28 03:10:00,43.2,37.5,29.65,WNW,283,4.0,11.0,80,0.00,,,0.00,WUHU216DAVISVP2,2013-02-28 08:10:00,
2013-02-28 03:15:00,43.4,38.0,29.65,West,273,0.0,11.0,81,0.00,,,0.00,WUHU216DAVISVP2,2013-02-28 08:15:00,
2013-02-28 03:20:00,43.3,38.2,29.65,West,280,1.0,11.0,82,0.00,,,0.00,WUHU216DAVISVP2,2013-02-28 08:20:00,
2013-02-28 03:25:00,43.1,38.3,29.65,West,263,4.0,10.0,83,0.00,,,0.00,WUHU216DAVISVP2,2013-02-28 08:25:00,
2013-02-28 03:30:00,42.9,38.1,29.65,West,278,4.0,10.0,83,0.00,,,0.00,WUHU216DAVISVP2,2013-02-28 08:30:00,
2013-02-28 03:35:00,42.8,38.3,29.65,NNW,328,1.0,10.0,84,0.00,,,0.00,WUHU216DAVISVP2,2013-02-28 08:35:00,
2013-02-28 03:40:00,42.7,38.5,29.65,WNW,284,1.0,10.0,85,0.01,,,0.01,WUHU216DAVISVP2,2013-02-28 08:40:00,
2013-02-28 03:45:00,42.5,38.3,29.65,West,267,0.0,8.0,85,0.01,,,0.01,WUHU216DAVISVP2,2013-02-28 08:45:00,
2013-02-28 03:50:00,42.4,38.5,29.65,WNW,282,0.0,8.0,86,0.01,,,0.01,WUHU216DAVISVP2,2013-02-28 08:50:00,
2013-02-28 03:55:00,42.3,38.4,29.65,NW,310,5.0,7.0,86,0.01,,,0.01,WUHU216DAVISVP2,2013-02-28 08:55:00,
2013-02-28 04:00:00,42.2,38.3,29.65,North,350,1.0,7.0,86,0.01,,,0.01,WUHU216DAVISVP2,2013-02-28 09:00:00,
2013-02-28 04:05:00,42.0,38.4,29.65,West,269,0.0,7.0,87,0.01,,,0.01,WUHU216DAVISVP2,2013-02-28 09:05:00,
2013-02-28 04:10:00,41.9,38.3,29.65,West,269,0.0,7.0,87,0.02,,,0.02,WUHU216DAVISVP2,2013-02-28 09:10:00,
2013-02-28 04:15:00,41.9,38.6,29.65,West,269,0.0,3.0,88,0.02,,,0.02,WUHU216DAVISVP2,2013-02-28 09:15:00,
2013-02-28 04:20:00,41.8,38.8,29.64,West,269,0.0,3.0,89,0.02,,,0.02,WUHU216DAVISVP2,2013-02-28 09:20:00,
2013-02-28 04:25:00,41.6,38.6,29.64,WNW,301,1.0,5.0,89,0.02,,,0.02,WUHU216DAVISVP2,2013-02-28 09:25:00,
2013-02-28 04:30:00,41.5,38.5,29.64,NW,314,0.0,5.0,89,0.03,,,0.03,WUHU216DAVISVP2,2013-02-28 09:30:00,
2013-02-28 04:35:00,41.5,38.5,29.64,NW,313,0.0,5.0,89,0.03,,,0.03,WUHU216DAVISVP2,2013-02-28 09:35:00,
2013-02-28 04:40:00,41.4,38.4,29.64,NW,313,0.0,5.0,89,0.02,,,0.03,WUHU216DAVISVP2,2013-02-28 09:40:00,
2013-02-28 04:45:00,41.3,38.3,29.64,NW,313,0.0,4.0,89,0.02,,,0.03,WUHU216DAVISVP2,2013-02-28 09:45:00,
2013-02-28 04:50:00,41.3,38.5,29.64,NW,313,0.0,1.0,90,0.02,,,0.03,WUHU216DAVISVP2,2013-02-28 09:50:00,
2013-02-28 04:55:00,41.1,38.3,29.65,NW,313,0.0,1.0,90,0.02,,,0.03,WUHU216DAVISVP2,2013-02-28 09:55:00,
2013-02-28 05:00:00,41.1,38.3,29.64,NW,313,0.0,1.0,90,0.02,,,0.03,WUHU216DAVISVP2,2013-02-28 10:00:00,
2013-02-28 05:05:00,41.0,38.2,29.64,NW,313,0.0,1.0,90,0.02,,,0.03,WUHU216DAVISVP2,2013-02-28 10:05:00,
2013-02-28 05:10:00,41.0,38.5,29.64,NW,314,0.0,1.0,91,0.01,,,0.03,WUHU216DAVISVP2,2013-02-28 10:10:00,
2013-02-28 05:15:00,40.9,38.4,29.64,NW,313,0.0,0.0,91,0.01,,,0.03,WUHU216DAVISVP2,2013-02-28 10:15:00,
2013-02-28 05:20:00,40.7,38.2,29.64,NW,313,0.0,0.0,91,0.01,,,0.03,WUHU216DAVISVP2,2013-02-28 10:20:00,
2013-02-28 05:25:00,40.7,38.2,29.64,NW,314,0.0,1.0,91,0.01,,,0.03,WUHU216DAVISVP2,2013-02-28 10:25:00,
2013-02-28 05:30:00,40.6,38.1,29.64,NW,313,0.0,1.0,91,0.00,,,0.03,WUHU216DAVISVP2,2013-02-28 10:30:00,
2013-02-28 05:35:00,40.6,38.4,29.65,NW,313,1.0,2.0,92,0.00,,,0.03,WUHU216DAVISVP2,2013-02-28 10:35:00,
2013-02-28 05:40:00,40.7,38.5,29.65,NW,313,0.0,2.0,92,0.00,,,0.03,WUHU216DAVISVP2,2013-02-28 10:40:00,
2013-02-28 05:45:00,40.7,38.8,29.65,NW,313,0.0,2.0,93,0.00,,,0.03,WUHU216DAVISVP2,2013-02-28 10:45:00,
2013-02-28 05:50:00,40.7,38.8,29.65,NW,313,0.0,2.0,93,0.00,,,0.03,WUHU216DAVISVP2,2013-02-28 10:50:00,
2013-02-28 05:55:00,40.7,38.8,29.66,NW,314,1.0,2.0,93,0.00,,,0.03,WUHU216DAVISVP2,2013-02-28 10:55:00,
2013-02-28 06:00:00,40.7,38.8,29.66,NW,313,0.0,2.0,93,0.00,,,0.03,WUHU216DAVISVP2,2013-02-28 11:00:00,
2013-02-28 06:05:00,40.7,38.8,29.66,NW,314,2.0,2.0,93,0.00,,,0.03,WUHU216DAVISVP2,2013-02-28 11:05:00,
2013-02-28 06:10:00,40.6,38.7,29.66,NW,313,0.0,3.0,93,0.00,,,0.03,WUHU216DAVISVP2,2013-02-28 11:10:00,
2013-02-28 06:15:00,40.6,38.7,29.66,NW,308,1.0,3.0,93,0.00,,,0.03,WUHU216DAVISVP2,2013-02-28 11:15:00,
2013-02-28 06:20:00,40.4,37.7,29.66,North,5,1.0,7.0,90,0.00,,,0.03,WUHU216DAVISVP2,2013-02-28 11:20:00,
2013-02-28 06:25:00,40.4,36.8,29.66,NW,314,3.0,7.0,87,0.00,,,0.03,WUHU216DAVISVP2,2013-02-28 11:25:00,
2013-02-28 06:30:00,40.5,36.6,29.66,NNW,341,1.0,7.0,86,0.00,,,0.03,WUHU216DAVISVP2,2013-02-28 11:30:00,
2013-02-28 06:35:00,40.5,36.3,29.66,WSW,255,0.0,7.0,85,0.00,,,0.03,WUHU216DAVISVP2,2013-02-28 11:35:00,
2013-02-28 06:40:00,40.5,36.6,29.66,WSW,255,0.0,5.0,86,0.00,,,0.03,WUHU216DAVISVP2,2013-02-28 11:40:00,
2013-02-28 06:45:00,40.4,36.5,29.67,WSW,255,1.0,4.0,86,0.00,,,0.03,WUHU216DAVISVP2,2013-02-28 11:45:00,
2013-02-28 06:50:00,40.4,36.5,29.67,WSW,255,0.0,3.0,86,0.00,,,0.03,WUHU216DAVISVP2,2013-02-28 11:50:00,
2013-02-28 06:55:00,40.4,36.5,29.67,WSW,255,0.0,2.0,86,0.00,,,0.03,WUHU216DAVISVP2,2013-02-28 11:55:00,
2013-02-28 07:00:00,40.4,36.5,29.66,WSW,255,0.0,2.0,86,0.00,,,0.03,WUHU216DAVISVP2,2013-02-28 12:00:00,
2013-02-28 07:05:00,40.4,36.8,29.67,WSW,255,0.0,2.0,87,0.00,,,0.03,WUHU216DAVISVP2,2013-02-28 12:05:00,
2013-02-28 07:10:00,40.3,36.7,29.67,WSW,255,0.0,2.0,87,0.00,,,0.03,WUHU216DAVISVP2,2013-02-28 12:10:00,
2013-02-28 07:15:00,40.2,36.3,29.67,NW,310,0.0,3.0,86,0.00,,,0.03,WUHU216DAVISVP2,2013-02-28 12:15:00,
2013-02-28 07:20:00,40.2,36.0,29.67,NW,310,0.0,3.0,85,0.00,,,0.03,WUHU216DAVISVP2,2013-02-28 12:20:00,
2013-02-28 07:25:00,40.3,35.8,29.67,NW,310,0.0,3.0,84,0.00,,,0.03,WUHU216DAVISVP2,2013-02-28 12:25:00,
2013-02-28 07:30:00,40.3,36.1,29.67,NW,309,0.0,3.0,85,0.00,,,0.03,WUHU216DAVISVP2,2013-02-28 12:30:00,
2013-02-28 07:35:00,40.3,36.1,29.67,NW,309,0.0,2.0,85,0.00,,,0.03,WUHU216DAVISVP2,2013-02-28 12:35:00,
2013-02-28 07:40:00,40.4,35.9,29.67,NW,309,1.0,3.0,84,0.00,,,0.03,WUHU216DAVISVP2,2013-02-28 12:40:00,
2013-02-28 07:45:00,40.4,35.9,29.67,NW,309,0.0,3.0,84,0.00,,,0.03,WUHU216DAVISVP2,2013-02-28 12:45:00,
2013-02-28 07:50:00,40.5,35.7,29.67,NW,309,2.0,3.0,83,0.00,,,0.03,WUHU216DAVISVP2,2013-02-28 12:50:00,
2013-02-28 07:55:00,40.7,35.6,29.67,West,279,2.0,6.0,82,0.00,,,0.03,WUHU216DAVISVP2,2013-02-28 12:55:00,
2013-02-28 08:00:00,40.8,35.4,29.67,West,270,2.0,6.0,81,0.00,,,0.03,WUHU216DAVISVP2,2013-02-28 13:00:00,
2013-02-28 08:05:00,41.0,34.7,29.67,West,273,0.0,6.0,78,0.00,,,0.03,WUHU216DAVISVP2,2013-02-28 13:05:00,
2013-02-28 08:10:00,41.1,34.5,29.68,WNW,296,0.0,6.0,77,0.00,,,0.03,WUHU216DAVISVP2,2013-02-28 13:10:00,
2013-02-28 08:15:00,41.1,34.5,29.67,WNW,297,1.0,5.0,77,0.00,,,0.03,WUHU216DAVISVP2,2013-02-28 13:15:00,
2013-02-28 08:20:00,41.2,34.3,29.68,WSW,249,0.0,5.0,76,0.00,,,0.03,WUHU216DAVISVP2,2013-02-28 13:20:00,
2013-02-28 08:25:00,41.3,33.7,29.68,NW,321,0.0,5.0,74,0.00,,,0.03,WUHU216DAVISVP2,2013-02-28 13:25:00,
2013-02-28 08:30:00,41.4,33.5,29.68,WNW,287,2.0,6.0,73,0.00,,,0.03,WUHU216DAVISVP2,2013-02-28 13:30:00,
2013-02-28 08:35:00,41.5,33.5,29.68,NNW,340,0.0,6.0,73,0.00,,,0.03,WUHU216DAVISVP2,2013-02-28 13:35:00,
2013-02-28 08:40:00,41.6,32.9,29.68,WNW,292,0.0,6.0,71,0.00,,,0.03,WUHU216DAVISVP2,2013-02-28 13:40:00,
2013-02-28 08:45:00,41.7,33.7,29.68,WNW,294,0.0,6.0,73,0.00,,,0.03,WUHU216DAVISVP2,2013-02-28 13:45:00,
2013-02-28 08:50:00,41.7,33.0,29.68,West,274,2.0,6.0,71,0.00,,,0.03,WUHU216DAVISVP2,2013-02-28 13:50:00,
2013-02-28 08:55:00,41.8,32.7,29.67,WNW,303,0.0,6.0,70,0.00,,,0.03,WUHU216DAVISVP2,2013-02-28 13:55:00,
2013-02-28 09:00:00,41.9,33.5,29.67,West,281,1.0,6.0,72,0.00,,,0.03,WUHU216DAVISVP2,2013-02-28 14:00:00,
2013-02-28 09:05:00,42.2,33.1,29.67,WSW,251,7.0,7.0,70,0.00,,,0.03,WUHU216DAVISVP2,2013-02-28 14:05:00,
2013-02-28 09:10:00,42.5,33.4,29.67,West,273,5.0,7.0,70,0.00,,,0.03,WUHU216DAVISVP2,2013-02-28 14:10:00,
2013-02-28 09:15:00,42.7,32.5,29.67,West,275,4.0,7.0,67,0.00,,,0.03,WUHU216DAVISVP2,2013-02-28 14:15:00,
2013-02-28 09:20:00,42.8,31.8,29.67,WSW,257,4.0,7.0,65,0.00,,,0.03,WUHU216DAVISVP2,2013-02-28 14:20:00,
2013-02-28 09:25:00,43.0,33.2,29.67,WSW,257,3.0,7.0,68,0.00,,,0.03,WUHU216DAVISVP2,2013-02-28 14:25:00,
2013-02-28 09:30:00,43.3,32.3,29.67,West,264,1.0,8.0,65,0.00,,,0.03,WUHU216DAVISVP2,2013-02-28 14:30:00,
2013-02-28 09:35:00,43.5,30.9,29.67,West,265,5.0,10.0,61,0.00,,,0.03,WUHU216DAVISVP2,2013-02-28 14:35:00,
2013-02-28 09:40:00,43.8,30.8,29.67,NW,316,3.0,10.0,60,0.00,,,0.03,WUHU216DAVISVP2,2013-02-28 14:40:00,
2013-02-28 09:45:00,44.1,31.1,29.67,West,268,2.0,10.0,60,0.00,,,0.03,WUHU216DAVISVP2,2013-02-28 14:45:00,
2013-02-28 09:50:00,44.3,30.9,29.67,WSW,238,5.0,10.0,59,0.00,,,0.03,WUHU216DAVISVP2,2013-02-28 14:50:00,
2013-02-28 09:55:00,44.7,32.2,29.67,WNW,294,1.0,12.0,61,0.00,,,0.03,WUHU216DAVISVP2,2013-02-28 14:55:00,
2013-02-28 10:00:00,45.2,31.8,29.66,West,263,8.0,12.0,59,0.00,,,0.03,WUHU216DAVISVP2,2013-02-28 15:00:00,
2013-02-28 10:05:00,45.5,31.2,29.66,WNW,284,4.0,12.0,57,0.00,,,0.03,WUHU216DAVISVP2,2013-02-28 15:05:00,
2013-02-28 10:10:00,45.9,31.6,29.66,West,279,9.0,12.0,57,0.00,,,0.03,WUHU216DAVISVP2,2013-02-28 15:10:00,
2013-02-28 10:15:00,46.1,30.9,29.66,North,9,2.0,10.0,55,0.00,,,0.03,WUHU216DAVISVP2,2013-02-28 15:15:00,
2013-02-28 10:20:00,46.1,29.9,29.66,WNW,289,2.0,10.0,53,0.00,,,0.03,WUHU216DAVISVP2,2013-02-28 15:20:00,
2013-02-28 10:25:00,46.1,30.4,29.66,West,270,3.0,10.0,54,0.00,,,0.03,WUHU216DAVISVP2,2013-02-28 15:25:00,
2013-02-28 10:30:00,46.2,31.4,29.66,NW,325,6.0,10.0,56,0.00,,,0.03,WUHU216DAVISVP2,2013-02-28 15:30:00,
2013-02-28 10:35:00,46.1,29.9,29.66,WSW,258,6.0,10.0,53,0.00,,,0.03,WUHU216DAVISVP2,2013-02-28 15:35:00,
2013-02-28 10:40:00,46.0,29.8,29.66,West,261,4.0,11.0,53,0.00,,,0.03,WUHU216DAVISVP2,2013-02-28 15:40:00,
2013-02-28 10:45:00,46.1,29.9,29.66,West,276,6.0,12.0,53,0.00,,,0.03,WUHU216DAVISVP2,2013-02-28 15:45:00,
2013-02-28 10:50:00,46.4,30.2,29.66,NW,305,1.0,12.0,53,0.00,,,0.03,WUHU216DAVISVP2,2013-02-28 15:50:00,
2013-02-28 10:55:00,46.6,29.9,29.66,West,276,3.0,12.0,52,0.00,,,0.03,WUHU216DAVISVP2,2013-02-28 15:55:00,
2013-02-28 11:00:00,46.7,30.5,29.66,West,271,2.0,12.0,53,0.00,,,0.03,WUHU216DAVISVP2,2013-02-28 16:00:00,
2013-02-28 11:05:00,46.8,28.6,29.66,West,259,5.0,11.0,49,0.00,,,0.03,WUHU216DAVISVP2,2013-02-28 16:05:00,
2013-02-28 11:10:00,46.7,29.5,29.65,West,265,6.0,11.0,51,0.00,,,0.03,WUHU216DAVISVP2,2013-02-28 16:10:00,
2013-02-28 11:15:00,47.1,29.4,29.65,NE,37,1.0,11.0,50,0.00,,,0.03,WUHU216DAVISVP2,2013-02-28 16:15:00,
2013-02-28 11:20:00,47.5,28.8,29.65,NW,307,1.0,11.0,48,0.00,,,0.03,WUHU216DAVISVP2,2013-02-28 16:20:00,
2013-02-28 11:25:00,47.8,29.5,29.65,West,276,5.0,11.0,49,0.00,,,0.03,WUHU216DAVISVP2,2013-02-28 16:25:00,
2013-02-28 11:30:00,48.1,29.8,29.65,NW,325,2.0,9.0,49,0.00,,,0.03,WUHU216DAVISVP2,2013-02-28 16:30:00,
2013-02-28 11:35:00,48.2,29.9,29.65,West,273,8.0,10.0,49,0.00,,,0.03,WUHU216DAVISVP2,2013-02-28 16:35:00,
2013-02-28 11:40:00,48.1,28.7,29.64,WSW,250,5.0,10.0,47,0.00,,,0.03,WUHU216DAVISVP2,2013-02-28 16:40:00,
2013-02-28 11:45:00,48.0,27.5,29.65,West,270,4.0,13.0,45,0.00,,,0.03,WUHU216DAVISVP2,2013-02-28 16:45:00,
2013-02-28 11:50:00,47.9,27.5,29.64,NNW,336,3.0,13.0,45,0.00,,,0.03,WUHU216DAVISVP2,2013-02-28 16:50:00,
2013-02-28 11:55:00,47.9,28.0,29.64,West,278,7.0,13.0,46,0.00,,,0.03,WUHU216DAVISVP2,2013-02-28 16:55:00,
2013-02-28 12:00:00,48.1,28.7,29.64,West,265,7.0,13.0,47,0.00,,,0.03,WUHU216DAVISVP2,2013-02-28 17:00:00,
2013-02-28 12:05:00,47.8,28.5,29.64,North,5,4.0,21.0,47,0.00,,,0.03,WUHU216DAVISVP2,2013-02-28 17:05:00,
2013-02-28 12:10:00,47.5,28.2,29.64,WSW,258,3.0,21.0,47,0.00,,,0.03,WUHU216DAVISVP2,2013-02-28 17:10:00,
2013-02-28 12:15:00,47.0,27.2,29.64,West,262,5.0,21.0,46,0.00,,,0.03,WUHU216DAVISVP2,2013-02-28 17:15:00,
2013-02-28 12:20:00,46.5,27.3,29.64,WSW,244,4.0,17.0,47,0.00,,,0.03,WUHU216DAVISVP2,2013-02-28 17:20:00,
2013-02-28 12:25:00,46.0,26.9,29.65,West,267,3.0,17.0,47,0.00,,,0.03,WUHU216DAVISVP2,2013-02-28 17:25:00,
2013-02-28 12:30:00,45.9,27.3,29.64,NNW,331,6.0,17.0,48,0.00,,,0.03,WUHU216DAVISVP2,2013-02-28 17:30:00,
2013-02-28 12:35:00,45.8,28.2,29.64,NW,307,1.0,16.0,50,0.00,,,0.03,WUHU216DAVISVP2,2013-02-28 17:35:00,
2013-02-28 12:40:00,45.7,28.1,29.64,West,275,1.0,15.0,50,0.00,,,0.03,WUHU216DAVISVP2,2013-02-28 17:40:00,
2013-02-28 12:45:00,45.6,28.5,29.64,West,274,5.0,12.0,51,0.00,,,0.03,WUHU216DAVISVP2,2013-02-28 17:45:00,
2013-02-28 12:50:00,45.4,28.3,29.64,WSW,246,6.0,12.0,51,0.00,,,0.03,WUHU216DAVISVP2,2013-02-28 17:50:00,
2013-02-28 12:55:00,45.4,28.8,29.64,NNW,336,5.0,12.0,52,0.00,,,0.03,WUHU216DAVISVP2,2013-02-28 17:55:00,
2013-02-28 13:00:00,45.6,29.0,29.64,West,275,4.0,12.0,52,0.00,,,0.03,WUHU216DAVISVP2,2013-02-28 18:00:00,
2013-02-28 13:05:00,45.9,29.2,29.64,WNW,284,6.0,15.0,52,0.00,,,0.03,WUHU216DAVISVP2,2013-02-28 18:05:00,
2013-02-28 13:10:00,46.1,28.9,29.63,WNW,295,3.0,15.0,51,0.00,,,0.03,WUHU216DAVISVP2,2013-02-28 18:10:00,
2013-02-28 13:15:00,46.2,28.5,29.63,West,273,2.0,15.0,50,0.00,,,0.03,WUHU216DAVISVP2,2013-02-28 18:15:00,
2013-02-28 13:20:00,46.2,30.0,29.63,West,271,10.0,15.0,53,0.00,,,0.03,WUHU216DAVISVP2,2013-02-28 18:20:00,
2013-02-28 13:25:00,46.1,28.9,29.63,WNW,296,2.0,15.0,51,0.00,,,0.03,WUHU216DAVISVP2,2013-02-28 18:25:00,
2013-02-28 13:30:00,46.3,29.6,29.63,NW,321,3.0,13.0,52,0.00,,,0.03,WUHU216DAVISVP2,2013-02-28 18:30:00,
2013-02-28 13:35:00,46.3,29.6,29.63,West,271,5.0,13.0,52,0.00,,,0.03,WUHU216DAVISVP2,2013-02-28 18:35:00,
2013-02-28 13:40:00,46.6,29.9,29.63,West,272,5.0,13.0,52,0.00,,,0.03,WUHU216DAVISVP2,2013-02-28 18:40:00,
2013-02-28 13:45:00,46.7,31.0,29.63,West,275,4.0,13.0,54,0.00,,,0.03,WUHU216DAVISVP2,2013-02-28 18:45:00,
2013-02-28 13:50:00,46.5,30.3,29.63,West,259,12.0,17.0,53,0.00,,,0.03,WUHU216DAVISVP2,2013-02-28 18:50:00,
2013-02-28 13:55:00,46.1,29.9,29.63,WNW,300,4.0,17.0,53,0.00,,,0.03,WUHU216DAVISVP2,2013-02-28 18:55:00,
2013-02-28 14:00:00,46.0,30.8,29.63,WNW,284,4.0,17.0,55,0.00,,,0.03,WUHU216DAVISVP2,2013-02-28 19:00:00,
2013-02-28 14:05:00,45.9,31.1,29.63,WNW,290,7.0,17.0,56,0.00,,,0.03,WUHU216DAVISVP2,2013-02-28 19:05:00,
2013-02-28 14:10:00,45.8,31.5,29.63,West,272,2.0,14.0,57,0.00,,,0.03,WUHU216DAVISVP2,2013-02-28 19:10:00,
2013-02-28 14:15:00,45.9,31.1,29.63,WNW,287,6.0,14.0,56,0.00,,,0.03,WUHU216DAVISVP2,2013-02-28 19:15:00,
2013-02-28 14:20:00,45.6,30.8,29.63,NW,320,6.0,21.0,56,0.00,,,0.03,WUHU216DAVISVP2,2013-02-28 19:20:00,
2013-02-28 14:25:00,45.3,31.4,29.64,West,266,5.0,21.0,58,0.00,,,0.03,WUHU216DAVISVP2,2013-02-28 19:25:00,
2013-02-28 14:30:00,45.4,31.5,29.64,NNW,336,1.0,21.0,58,0.00,,,0.03,WUHU216DAVISVP2,2013-02-28 19:30:00,
2013-02-28 14:35:00,45.5,31.6,29.64,NNW,333,2.0,21.0,58,0.00,,,0.03,WUHU216DAVISVP2,2013-02-28 19:35:00,
2013-02-28 14:40:00,45.7,32.6,29.64,WNW,302,5.0,17.0,60,0.00,,,0.03,WUHU216DAVISVP2,2013-02-28 19:40:00,
2013-02-28 14:45:00,46.0,32.0,29.64,SSW,209,4.0,17.0,58,0.00,,,0.03,WUHU216DAVISVP2,2013-02-28 19:45:00,
2013-02-28 14:50:00,46.0,32.0,29.64,West,269,7.0,14.0,58,0.00,,,0.03,WUHU216DAVISVP2,2013-02-28 19:50:00,
2013-02-28 14:55:00,46.1,32.1,29.64,West,276,3.0,14.0,58,0.00,,,0.03,WUHU216DAVISVP2,2013-02-28 19:55:00,
2013-02-28 15:00:00,46.2,31.8,29.64,West,280,3.0,15.0,57,0.00,,,0.03,WUHU216DAVISVP2,2013-02-28 20:00:00,
2013-02-28 15:05:00,46.3,31.4,29.64,WSW,256,4.0,15.0,56,0.00,,,0.03,WUHU216DAVISVP2,2013-02-28 20:05:00,
2013-02-28 15:10:00,46.5,31.6,29.63,West,279,10.0,15.0,56,0.00,,,0.03,WUHU216DAVISVP2,2013-02-28 20:10:00,
2013-02-28 15:15:00,46.7,30.5,29.64,West,275,1.0,16.0,53,0.00,,,0.03,WUHU216DAVISVP2,2013-02-28 20:15:00,
2013-02-28 15:20:00,46.6,30.4,29.64,West,267,8.0,16.0,53,0.00,,,0.03,WUHU216DAVISVP2,2013-02-28 20:20:00,
2013-02-28 15:25:00,46.0,29.8,29.64,WSW,245,10.0,16.0,53,0.00,,,0.03,WUHU216DAVISVP2,2013-02-28 20:25:00,
2013-02-28 15:30:00,45.5,29.8,29.64,West,259,4.0,16.0,54,0.00,,,0.03,WUHU216DAVISVP2,2013-02-28 20:30:00,
2013-02-28 15:35:00,45.2,30.0,29.63,West,269,3.0,14.0,55,0.00,,,0.03,WUHU216DAVISVP2,2013-02-28 20:35:00,
2013-02-28 15:40:00,45.0,30.3,29.64,West,264,8.0,14.0,56,0.00,,,0.03,WUHU216DAVISVP2,2013-02-28 20:40:00,
2013-02-28 15:45:00,45.1,31.6,29.64,NW,309,2.0,14.0,59,0.00,,,0.03,WUHU216DAVISVP2,2013-02-28 20:45:00,
2013-02-28 15:50:00,45.4,30.7,29.64,West,273,3.0,13.0,56,0.00,,,0.03,WUHU216DAVISVP2,2013-02-28 20:50:00,
2013-02-28 15:55:00,45.3,30.6,29.64,WSW,248,3.0,13.0,56,0.00,,,0.03,WUHU216DAVISVP2,2013-02-28 20:55:00,
2013-02-28 16:00:00,45.1,31.3,29.64,West,275,1.0,10.0,58,0.00,,,0.03,WUHU216DAVISVP2,2013-02-28 21:00:00,
2013-02-28 16:05:00,45.1,31.3,29.64,WNW,293,2.0,10.0,58,0.00,,,0.03,WUHU216DAVISVP2,2013-02-28 21:05:00,
2013-02-28 16:10:00,44.9,31.1,29.64,WSW,257,5.0,10.0,58,0.00,,,0.03,WUHU216DAVISVP2,2013-02-28 21:10:00,
2013-02-28 16:15:00,44.6,30.8,29.64,WNW,283,4.0,9.0,58,0.00,,,0.03,WUHU216DAVISVP2,2013-02-28 21:15:00,
2013-02-28 16:20:00,44.4,30.2,29.64,West,279,5.0,11.0,57,0.00,,,0.03,WUHU216DAVISVP2,2013-02-28 21:20:00,
2013-02-28 16:25:00,44.3,30.5,29.64,WNW,295,6.0,15.0,58,0.00,,,0.03,WUHU216DAVISVP2,2013-02-28 21:25:00,
2013-02-28 16:30:00,44.2,30.3,29.64,WSW,252,10.0,15.0,58,0.00,,,0.03,WUHU216DAVISVP2,2013-02-28 21:30:00,
2013-02-28 16:35:00,44.2,30.8,29.64,West,280,2.0,15.0,59,0.00,,,0.03,WUHU216DAVISVP2,2013-02-28 21:35:00,
2013-02-28 16:40:00,44.4,31.0,29.64,WNW,295,2.0,15.0,59,0.00,,,0.03,WUHU216DAVISVP2,2013-02-28 21:40:00,
2013-02-28 16:45:00,44.6,29.9,29.64,West,275,2.0,14.0,56,0.00,,,0.03,WUHU216DAVISVP2,2013-02-28 21:45:00,
2013-02-28 16:50:00,44.6,29.4,29.64,West,264,3.0,14.0,55,0.00,,,0.03,WUHU216DAVISVP2,2013-02-28 21:50:00,
2013-02-28 16:55:00,44.5,29.4,29.64,WSW,250,4.0,14.0,55,0.00,,,0.03,WUHU216DAVISVP2,2013-02-28 21:55:00,
2013-02-28 17:00:00,44.4,29.3,29.64,West,281,4.0,14.0,55,0.00,,,0.03,WUHU216DAVISVP2,2013-02-28 22:00:00,
2013-02-28 17:05:00,44.3,28.7,29.64,WNW,284,8.0,13.0,54,0.00,,,0.03,WUHU216DAVISVP2,2013-02-28 22:05:00,
2013-02-28 17:10:00,44.2,29.1,29.65,West,268,3.0,12.0,55,0.00,,,0.03,WUHU216DAVISVP2,2013-02-28 22:10:00,
2013-02-28 17:15:00,44.1,29.0,29.65,WNW,296,5.0,12.0,55,0.00,,,0.03,WUHU216DAVISVP2,2013-02-28 22:15:00,
2013-02-28 17:20:00,44.0,28.9,29.65,WNW,292,3.0,12.0,55,0.00,,,0.03,WUHU216DAVISVP2,2013-02-28 22:20:00,
2013-02-28 17:25:00,43.9,28.8,29.65,NW,304,2.0,12.0,55,0.00,,,0.03,WUHU216DAVISVP2,2013-02-28 22:25:00,
2013-02-28 17:30:00,43.8,29.2,29.65,WNW,296,1.0,11.0,56,0.00,,,0.03,WUHU216DAVISVP2,2013-02-28 22:30:00,
2013-02-28 17:35:00,43.8,29.2,29.65,West,280,0.0,11.0,56,0.00,,,0.03,WUHU216DAVISVP2,2013-02-28 22:35:00,
2013-02-28 17:40:00,43.7,29.5,29.66,WNW,285,6.0,10.0,57,0.00,,,0.03,WUHU216DAVISVP2,2013-02-28 22:40:00,
2013-02-28 17:45:00,43.7,29.9,29.66,SW,225,4.0,10.0,58,0.00,,,0.03,WUHU216DAVISVP2,2013-02-28 22:45:00,
2013-02-28 17:50:00,43.7,29.9,29.66,NNW,333,1.0,11.0,58,0.00,,,0.03,WUHU216DAVISVP2,2013-02-28 22:50:00,
2013-02-28 17:55:00,43.6,29.4,29.66,SSW,207,0.0,11.0,57,0.00,,,0.03,WUHU216DAVISVP2,2013-02-28 22:55:00,
2013-02-28 18:00:00,43.5,29.3,29.66,WNW,298,2.0,11.0,57,0.00,,,0.03,WUHU216DAVISVP2,2013-02-28 23:00:00,
2013-02-28 18:05:00,43.4,29.2,29.67,West,269,2.0,13.0,57,0.00,,,0.03,WUHU216DAVISVP2,2013-02-28 23:05:00,
2013-02-28 18:10:00,43.3,30.0,29.67,West,263,14.0,14.0,59,0.00,,,0.03,WUHU216DAVISVP2,2013-02-28 23:10:00,
2013-02-28 18:15:00,43.1,30.2,29.67,WNW,284,5.0,16.0,60,0.00,,,0.03,WUHU216DAVISVP2,2013-02-28 23:15:00,
2013-02-28 18:20:00,42.9,30.0,29.68,West,273,9.0,16.0,60,0.00,,,0.03,WUHU216DAVISVP2,2013-02-28 23:20:00,
2013-02-28 18:25:00,42.8,30.3,29.68,WNW,290,5.0,16.0,61,0.00,,,0.03,WUHU216DAVISVP2,2013-02-28 23:25:00,
2013-02-28 18:30:00,42.6,30.5,29.69,WSW,250,6.0,16.0,62,0.00,,,0.03,WUHU216DAVISVP2,2013-02-28 23:30:00,
2013-02-28 18:35:00,42.4,30.7,29.69,NW,323,1.0,14.0,63,0.00,,,0.03,WUHU216DAVISVP2,2013-02-28 23:35:00,
2013-02-28 18:40:00,42.2,30.5,29.69,WNW,292,3.0,14.0,63,0.00,,,0.03,WUHU216DAVISVP2,2013-02-28 23:40:00,
2013-02-28 18:45:00,42.1,30.8,29.69,WNW,284,1.0,14.0,64,0.00,,,0.03,WUHU216DAVISVP2,2013-02-28 23:45:00,
2013-02-28 18:50:00,42.0,30.7,29.70,SE,125,3.0,14.0,64,0.00,,,0.03,WUHU216DAVISVP2,2013-02-28 23:50:00,
2013-02-28 18:55:00,42.0,30.7,29.70,West,265,2.0,12.0,64,0.00,,,0.03,WUHU216DAVISVP2,2013-02-28 23:55:00,
2013-02-28 19:00:00,41.9,30.6,29.70,NNW,338,2.0,12.0,64,0.00,,,0.03,WUHU216DAVISVP2,2013-03-01 00:00:00,
2013-02-28 19:05:00,41.8,30.9,29.70,West,266,5.0,12.0,65,0.00,,,0.03,WUHU216DAVISVP2,2013-03-01 00:05:00,
2013-02-28 19:10:00,41.7,30.9,29.70,WNW,291,3.0,10.0,65,0.00,,,0.03,WUHU216DAVISVP2,2013-03-01 00:10:00,
2013-02-28 19:15:00,41.6,30.8,29.70,WNW,300,7.0,12.0,65,0.00,,,0.03,WUHU216DAVISVP2,2013-03-01 00:15:00,
2013-02-28 19:20:00,41.6,30.7,29.70,West,267,3.0,13.0,65,0.00,,,0.03,WUHU216DAVISVP2,2013-03-01 00:20:00,
2013-02-28 19:25:00,41.5,30.6,29.70,NW,305,5.0,14.0,65,0.00,,,0.03,WUHU216DAVISVP2,2013-03-01 00:25:00,
2013-02-28 19:30:00,41.5,31.0,29.70,West,264,5.0,14.0,66,0.00,,,0.03,WUHU216DAVISVP2,2013-03-01 00:30:00,
2013-02-28 19:35:00,41.3,30.8,29.70,West,263,4.0,14.0,66,0.00,,,0.03,WUHU216DAVISVP2,2013-03-01 00:35:00,
2013-02-28 19:40:00,41.3,30.8,29.70,WNW,289,2.0,14.0,66,0.00,,,0.03,WUHU216DAVISVP2,2013-03-01 00:40:00,
2013-02-28 19:45:00,41.2,31.1,29.70,WNW,294,4.0,9.0,67,0.00,,,0.03,WUHU216DAVISVP2,2013-03-01 00:45:00,
2013-02-28 19:50:00,41.1,31.0,29.70,West,263,5.0,11.0,67,0.00,,,0.03,WUHU216DAVISVP2,2013-03-01 00:50:00,
2013-02-28 19:55:00,41.1,31.0,29.71,WNW,290,6.0,11.0,67,0.00,,,0.03,WUHU216DAVISVP2,2013-03-01 00:55:00,
2013-02-28 20:00:00,41.1,31.3,29.71,West,264,4.0,11.0,68,0.00,,,0.03,WUHU216DAVISVP2,2013-03-01 01:00:00,
2013-02-28 20:05:00,41.1,32.4,29.71,West,279,5.0,11.0,71,0.00,,,0.03,WUHU216DAVISVP2,2013-03-01 01:05:00,
2013-02-28 20:10:00,41.0,31.2,29.71,West,262,5.0,9.0,68,0.00,,,0.03,WUHU216DAVISVP2,2013-03-01 01:10:00,
2013-02-28 20:15:00,40.9,31.1,29.71,West,271,3.0,9.0,68,0.00,,,0.03,WUHU216DAVISVP2,2013-03-01 01:15:00,
2013-02-28 20:20:00,40.9,31.6,29.71,WSW,255,4.0,9.0,69,0.00,,,0.03,WUHU216DAVISVP2,2013-03-01 01:20:00,
2013-02-28 20:25:00,40.9,31.6,29.72,West,261,1.0,9.0,69,0.00,,,0.03,WUHU216DAVISVP2,2013-03-01 01:25:00,
2013-02-28 20:30:00,40.8,31.4,29.72,West,272,4.0,7.0,69,0.00,,,0.03,WUHU216DAVISVP2,2013-03-01 01:30:00,
2013-02-28 20:35:00,40.7,31.3,29.72,West,261,5.0,8.0,69,0.00,,,0.03,WUHU216DAVISVP2,2013-03-01 01:35:00,
2013-02-28 20:40:00,40.7,31.3,29.72,West,273,0.0,8.0,69,0.00,,,0.03,WUHU216DAVISVP2,2013-03-01 01:40:00,
2013-02-28 20:45:00,40.7,31.3,29.72,West,273,0.0,8.0,69,0.00,,,0.03,WUHU216DAVISVP2,2013-03-01 01:45:00,
2013-02-28 20:50:00,40.6,31.2,29.72,West,273,2.0,8.0,69,0.00,,,0.03,WUHU216DAVISVP2,2013-03-01 01:50:00,
2013-02-28 20:55:00,40.6,31.2,29.72,West,277,1.0,6.0,69,0.00,,,0.03,WUHU216DAVISVP2,2013-03-01 01:55:00,
2013-02-28 21:00:00,40.5,31.1,29.72,WNW,292,4.0,6.0,69,0.00,,,0.03,WUHU216DAVISVP2,2013-03-01 02:00:00,
2013-02-28 21:05:00,40.6,31.2,29.72,West,260,1.0,6.0,69,0.00,,,0.03,WUHU216DAVISVP2,2013-03-01 02:05:00,
2013-02-28 21:10:00,40.5,31.1,29.72,West,273,4.0,7.0,69,0.00,,,0.03,WUHU216DAVISVP2,2013-03-01 02:10:00,
2013-02-28 21:15:00,40.5,31.1,29.72,West,262,1.0,7.0,69,0.00,,,0.03,WUHU216DAVISVP2,2013-03-01 02:15:00,
2013-02-28 21:20:00,40.4,31.0,29.72,West,269,3.0,8.0,69,0.00,,,0.03,WUHU216DAVISVP2,2013-03-01 02:20:00,
2013-02-28 21:25:00,40.4,31.0,29.72,WNW,288,1.0,8.0,69,0.00,,,0.03,WUHU216DAVISVP2,2013-03-01 02:25:00,
2013-02-28 21:30:00,40.4,30.8,29.72,West,281,0.0,8.0,68,0.00,,,0.03,WUHU216DAVISVP2,2013-03-01 02:30:00,
2013-02-28 21:35:00,40.3,30.7,29.72,West,275,1.0,8.0,68,0.00,,,0.03,WUHU216DAVISVP2,2013-03-01 02:35:00,
2013-02-28 21:40:00,40.2,30.9,29.72,West,266,0.0,6.0,69,0.00,,,0.03,WUHU216DAVISVP2,2013-03-01 02:40:00,
2013-02-28 21:45:00,40.1,30.8,29.72,West,275,0.0,5.0,69,0.00,,,0.03,WUHU216DAVISVP2,2013-03-01 02:45:00,
2013-02-28 21:50:00,40.1,30.7,29.72,West,280,2.0,7.0,69,0.00,,,0.03,WUHU216DAVISVP2,2013-03-01 02:50:00,
2013-02-28 21:55:00,40.2,30.5,29.72,West,277,3.0,8.0,68,0.00,,,0.03,WUHU216DAVISVP2,2013-03-01 02:55:00,
2013-02-28 22:00:00,40.2,30.6,29.72,NW,321,2.0,8.0,68,0.00,,,0.03,WUHU216DAVISVP2,2013-03-01 03:00:00,
2013-02-28 22:05:00,40.2,30.9,29.72,West,281,1.0,8.0,69,0.00,,,0.03,WUHU216DAVISVP2,2013-03-01 03:05:00,
2013-02-28 22:10:00,40.2,30.9,29.71,West,281,1.0,8.0,69,0.00,,,0.03,WUHU216DAVISVP2,2013-03-01 03:10:00,
2013-02-28 22:15:00,40.3,30.7,29.71,WSW,257,0.0,5.0,68,0.00,,,0.03,WUHU216DAVISVP2,2013-03-01 03:15:00,
2013-02-28 22:20:00,40.4,30.8,29.71,West,279,2.0,6.0,68,0.00,,,0.03,WUHU216DAVISVP2,2013-03-01 03:20:00,
2013-02-28 22:25:00,40.5,30.9,29.71,West,269,3.0,8.0,68,0.00,,,0.03,WUHU216DAVISVP2,2013-03-01 03:25:00,
2013-02-28 22:30:00,40.6,30.9,29.71,West,276,2.0,8.0,68,0.00,,,0.03,WUHU216DAVISVP2,2013-03-01 03:30:00,
2013-02-28 22:35:00,40.7,30.7,29.71,West,273,5.0,8.0,67,0.00,,,0.03,WUHU216DAVISVP2,2013-03-01 03:35:00,
2013-02-28 22:40:00,40.8,31.1,29.71,WSW,258,2.0,8.0,68,0.00,,,0.03,WUHU216DAVISVP2,2013-03-01 03:40:00,
2013-02-28 22:45:00,40.8,30.8,29.71,West,260,4.0,8.0,67,0.00,,,0.03,WUHU216DAVISVP2,2013-03-01 03:45:00,
2013-02-28 22:50:00,40.9,30.9,29.71,NNW,338,3.0,8.0,67,0.00,,,0.03,WUHU216DAVISVP2,2013-03-01 03:50:00,
2013-02-28 22:55:00,40.9,30.9,29.71,NNW,327,1.0,7.0,67,0.00,,,0.03,WUHU216DAVISVP2,2013-03-01 03:55:00,
2013-02-28 23:00:00,40.9,30.9,29.71,WSW,251,5.0,7.0,67,0.00,,,0.03,WUHU216DAVISVP2,2013-03-01 04:00:00,
2013-02-28 23:05:00,40.9,30.9,29.71,West,267,8.0,9.0,67,0.00,,,0.03,WUHU216DAVISVP2,2013-03-01 04:05:00,
2013-02-28 23:10:00,41.0,31.0,29.71,WNW,298,3.0,9.0,67,0.00,,,0.03,WUHU216DAVISVP2,2013-03-01 04:10:00,
2013-02-28 23:15:00,41.0,31.0,29.71,West,265,5.0,9.0,67,0.00,,,0.03,WUHU216DAVISVP2,2013-03-01 04:15:00,
2013-02-28 23:20:00,41.0,31.0,29.71,West,278,3.0,11.0,67,0.00,,,0.03,WUHU216DAVISVP2,2013-03-01 04:20:00,
2013-02-28 23:25:00,41.0,31.0,29.71,WNW,296,4.0,11.0,67,0.00,,,0.03,WUHU216DAVISVP2,2013-03-01 04:25:00,
2013-02-28 23:30:00,41.0,32.4,29.71,NW,320,1.0,11.0,71,0.00,,,0.03,WUHU216DAVISVP2,2013-03-01 04:30:00,
2013-02-28 23:35:00,40.9,30.9,29.71,West,273,2.0,11.0,67,0.00,,,0.03,WUHU216DAVISVP2,2013-03-01 04:35:00,
2013-02-28 23:40:00,40.8,31.1,29.70,West,275,8.0,10.0,68,0.00,,,0.03,WUHU216DAVISVP2,2013-03-01 04:40:00,
2013-02-28 23:45:00,40.8,31.1,29.71,WSW,252,1.0,10.0,68,0.00,,,0.03,WUHU216DAVISVP2,2013-03-01 04:45:00,
2013-02-28 23:50:00,40.7,31.0,29.71,West,277,1.0,10.0,68,0.00,,,0.03,WUHU216DAVISVP2,2013-03-01 04:50:00,
2013-02-28 23:55:00,40.6,30.9,29.70,West,277,7.0,10.0,68,0.00,,,0.03,WUHU216DAVISVP2,2013-03-01 04:55:00,